Location: Big Sable Point
(44.0575°N, 86.5149°W)
Time: 16:03:06
(UTC-04:00)

OTV 5 (USA 277) - Visible Passes

Search period start: 21 September 2018 00:00
Search period end: 01 October 2018 00:00
Orbit: 387 x 394 km, 54.5° (Epoch: 08 September)

Date Brightness Start Highest point End Pass type
(mag) Time Alt. Az. Time Alt. Az. Time Alt. Az.
25 Sep ? 06:37:22 10° SSE 06:38:47 12° SE 06:40:13 10° E visible
27 Sep ? 06:19:11 10° S 06:21:47 23° SE 06:24:24 10° ENE visible
28 Sep ? 05:25:17 11° SE 05:25:43 11° SE 05:26:32 10° ESE visible
28 Sep ? 06:57:57 10° SW 07:01:09 83° NW 07:04:22 10° NE visible
29 Sep ? 06:03:56 33° S 06:04:51 44° SE 06:07:55 10° ENE visible
30 Sep ? 05:10:04 16° E 05:10:04 16° E 05:11:07 10° E visible
30 Sep ? 06:42:28 20° W 06:44:24 45° NNW 06:47:30 10° NE visible
